Temp
-7 -7 -7 -7 -7 -7 -7 -7 -7 -7 -7 -7 -7 -7 -7 -8 -8 -8 -8 -8 -8 -8 -8 -8 -9 -9 -9 -9 -9 -9 -9 -8 -8 -8 -9 -9 -9 -9 -9 -9 -8 -9 -9 -8 -8
-8 -8 -7 -7 -7 -7 -7 -7 -7 -7 -7 -7 -7 -7 -7 -7 -8 -8 -8 -8 -8 -8 -8 -8 -8 -8 -9 -9 -9 -9 -9 -9 -9 -9 -9 -9 -9 -9 -9 -10 -9 -8 -8 -8 -8
-8 -8 -8 -7 -7 -7 -7 -7 -7 -7 -7 -7 -7 -7 -7 -7 -8 -7 -8 -8 -8 -8 -8 -8 -8 -8 -9 -9 -9 -9 -9 -9 -9 -9 -9 -9 -9 -9 -9 -10 -9 -10 -8 -8 -8
-8 -8 -8 -7 -7 -7 -7 -7 -7 -7 -7 -7 -7 -7 -7 -7 -7 -8 -8 -8 -8 -8 -8 -8 -8 -8 -9 -9 -9 -9 -9 -10 -10 -10 -9 -10 -9 -9 -9 -8 -8 -10 -9 -9 -8
-8 -8 -8 -8 -7 -7 -7 -7 -7 -7 -7 -7 -7 -7 -7 -7 -7 -7 -7 -8 -8 -8 -8 -8 -8 -8 -9 -9 -9 -8 -9 -10 -10 -9 -9 -9 -9 -10 -9 -10 -9 -10 -9 -9 -9
-8 -8 -8 -8 -8 -7 -7 -7 -7 -7 -7 -7 -7 -7 -7 -7 -7 -7 -7 -7 -7 -8 -8 -8 -8 -8 -8 -9 -9 -9 -9 -9 -9 -10 -10 -9 -9 -9 -9 -10 -10 -9 -9 -9 -9
-8 -8 -8 -8 -8 -8 -7 -7 -7 -7 -7 -7 -7 -7 -7 -7 -7 -7 -7 -7 -7 -8 -8 -8 -8 -8 -8 -9 -9 -8 -9 -9 -8 -9 -9 -9 -10 -10 -10 -10 -10 -9 -9 -9 -9
-8 -8 -8 -8 -8 -7 -7 -7 -7 -7 -7 -7 -7 -7 -7 -7 -7 -7 -7 -7 -7 -7 -8 -8 -8 -8 -8 -8 -9 -8 -8 -10 -10 -9 -8 -8 -9 -10 -10 -10 -10 -10 -11 -10 -10
-9 -9 -8 -8 -8 -8 -8 -7 -7 -7 -7 -7 -7 -7 -6 -7 -7 -7 -7 -7 -7 -7 -8 -8 -8 -8 -8 -8 -9 -8 -9 -9 -9 -9 -10 -8 -9 -9 -10 -10 -10 -10 -10 -11 -10
-9 -9 -9 -9 -8 -8 -8 -8 -7 -7 -7 -7 -7 -7 -7 -7 -7 -7 -7 -7 -7 -8 -8 -8 -8 -8 -8 -8 -9 -9 -9 -9 -9 -10 -9 -8 -9 -10 -10 -10 -9 -10 -10 -10 -10
-10 -9 -9 -9 -9 -8 -8 -8 -8 -8 -8 -7 -7 -7 -7 -7 -7 -7 -7 -7 -7 -8 -8 -8 -8 -8 -8 -8 -10 -10 -10 -9 -9 -10 -10 -10 -10 -10 -10 -10 -10 -10 -10 -10 -10
-10 -10 -9 -9 -9 -9 -9 -8 -8 -8 -8 -8 -7 -7 -7 -7 -7 -7 -7 -7 -7 -8 -8 -8 -8 -8 -9 -8 -8 -8 -9 -10 -10 -10 -8 -9 -10 -10 -10 -10 -10 -10 -10 -9 -8
-10 -10 -10 -10 -9 -9 -9 -9 -9 -8 -8 -8 -8 -8 -7 -7 -7 -7 -8 -8 -8 -8 -8 -8 -9 -9 -8 -8 -8 -8 -8 -9 -10 -10 -9 -9 -10 -10 -10 -9 -9 -9 -9 -9 -10
-10 -10 -10 -10 -10 -10 -10 -9 -9 -9 -8 -9 -8 -8 -8 -8 -7 -7 -8 -8 -8 -8 -8 -8 -8 -7 -8 -8 -8 -8 -8 -8 -9 -9 -10 -10 -9 -9 -10 -9 -10 -9 -9 -9 -10
-11 -11 -10 -10 -10 -10 -10 -10 -10 -10 -9 -9 -8 -8 -8 -8 -8 -8 -8 -8 -8 -8 -8 -8 -8 -8 -8 -8 -8 -9 -8 -8 -9 -9 -10 -10 -10 -9 -10 -10 -9 -8 -9 -10 -10
-11 -11 -11 -11 -10 -10 -10 -10 -10 -10 -10 -9 -9 -9 -8 -8 -8 -8 -8 -8 -8 -8 -8 -8 -8 -8 -8 -8 -8 -8 -8 -9 -9 -9 -10 -10 -10 -9 -10 -11 -10 -8 -9 -9 -9
-11 -11 -11 -11 -11 -10 -10 -10 -10 -10 -10 -9 -9 -9 -9 -9 -9 -8 -8 -8 -8 -8 -8 -8 -8 -8 -8 -8 -8 -8 -8 -9 -10 -10 -10 -10 -10 -10 -10 -10 -10 -9 -9 -9 -10
-11 -11 -11 -12 -11 -11 -11 -11 -10 -10 -10 -9 -10 -10 -9 -9 -9 -9 -9 -8 -8 -8 -9 -8 -9 -8 -8 -8 -8 -8 -9 -10 -10 -9 -9 -10 -10 -10 -10 -10 -10 -10 -10 -10 -10
-11 -12 -12 -11 -12 -12 -11 -11 -10 -11 -10 -10 -10 -10 -10 -10 -9 -9 -9 -9 -9 -9 -9 -11 -8 -11 -8 -8 -9 -10 -9 -10 -11 -10 -10 -10 -11 -10 -10 -10 -10 -10 -10 -10 -10
-12 -12 -12 -12 -12 -12 -11 -10 -11 -11 -10 -10 -10 -10 -10 -10 -10 -10 -9 -9 -9 -9 -9 -10 -10 -11 -9 -9 -9 -9 -11 -10 -10 -11 -10 -10 -10 -10 -10 -10 -10 -10 -11 -11 -11
-12 -12 -11 -12 -12 -12 -11 -11 -12 -12 -11 -11 -11 -11 -10 -11 -10 -10 -10 -10 -9 -9 -10 -10 -9 -11 -9 -8 -9 -9 -9 -10 -11 -11 -11 -10 -10 -11 -11 -10 -10 -11 -11 -11 -11
-11 -12 -11 -12 -13 -12 -11 -11 -12 -12 -11 -11 -11 -11 -10 -11 -11 -10 -11 -10 -9 -10 -10 -10 -10 -11 -10 -9 -10 -10 -9 -10 -10 -10 -11 -11 -11 -11 -11 -11 -11 -11 -11 -11 -11
-12 -12 -11 -12 -12 -13 -12 -12 -12 -12 -12 -12 -11 -11 -11 -11 -11 -10 -11 -12 -10 -11 -10 -10 -10 -10 -12 -11 -9 -10 -10 -12 -12 -12 -11 -11 -11 -11 -12 -12 -11 -12 -11 -12 -12
-13 -12 -13 -13 -13 -14 -13 -12 -12 -13 -13 -12 -12 -12 -12 -11 -11 -11 -11 -13 -11 -11 -11 -11 -11 -10 -11 -12 -12 -11 -10 -10 -11 -11 -11 -12 -12 -11 -11 -12 -12 -13 -12 -12 -12
-14 -15 -15 -13 -16 -16 -15 -14 -13 -13 -14 -13 -12 -12 -12 -12 -11 -11 -12 -13 -11 -11 -11 -11 -11 -11 -11 -12 -12 -12 -12 -11 -12 -11 -12 -11 -11 -11 -11 -12 -12 -12 -12 -12 -12
-17 -18 -18 -19 -19 -18 -17 -16 -15 -14 -15 -14 -13 -13 -13 -12 -12 -12 -13 -14 -12 -12 -12 -12 -11 -12 -11 -12 -13 -12 -12 -12 -12 -13 -12 -12 -12 -12 -11 -12 -12 -13 -12 -12 -12
-19 -19 -20 -20 -20 -20 -19 -18 -17 -16 -15 -15 -14 -14 -13 -13 -13 -13 -14 -14 -14 -12 -13 -12 -12 -12 -13 -13 -13 -13 -13 -12 -12 -13 -13 -12 -12 -13 -12 -13 -13 -13 -13 -12 -12
Height
5881 5882 5883 5884 5885 5886 5886 5887 5888 5889 5889 5889 5890 5891 5892 5894 5895 5897 5898 5901 5901 5902 5903 5904 5905 5909 5913 5917 5920 5923 5928 5935 5940 5936 5929 5927 5930 5932 5934 5930 5930 5929 5926 5924 5922
5878 5879 5880 5881 5882 5883 5883 5884 5886 5887 5887 5888 5889 5890 5891 5892 5894 5895 5897 5898 5899 5901 5902 5903 5905 5907 5910 5914 5918 5922 5927 5934 5932 5933 5934 5929 5932 5931 5931 5930 5927 5925 5924 5923 5922
5875 5876 5877 5878 5879 5880 5880 5881 5883 5884 5885 5886 5887 5888 5889 5890 5892 5893 5894 5896 5897 5899 5900 5902 5904 5906 5908 5911 5915 5920 5923 5931 5926 5925 5927 5931 5930 5930 5930 5928 5924 5924 5922 5921 5920
5871 5873 5874 5875 5876 5877 5877 5878 5879 5880 5882 5883 5885 5886 5887 5888 5890 5891 5892 5894 5896 5897 5899 5901 5903 5905 5907 5909 5912 5915 5921 5922 5924 5919 5925 5927 5929 5931 5929 5917 5910 5924 5921 5921 5919
5867 5869 5870 5871 5872 5873 5874 5875 5876 5877 5878 5880 5881 5883 5885 5887 5888 5889 5890 5891 5893 5895 5897 5899 5901 5903 5906 5908 5910 5912 5915 5917 5918 5916 5921 5924 5926 5928 5927 5929 5926 5925 5921 5920 5918
5863 5864 5865 5867 5868 5870 5870 5871 5872 5874 5875 5876 5877 5880 5882 5883 5886 5887 5888 5889 5891 5893 5895 5897 5899 5902 5904 5906 5908 5910 5912 5913 5914 5915 5916 5919 5922 5924 5929 5926 5923 5924 5921 5918 5916
5859 5860 5861 5862 5864 5866 5867 5868 5869 5870 5871 5873 5874 5876 5878 5880 5882 5884 5885 5887 5889 5891 5893 5895 5897 5900 5902 5904 5906 5907 5909 5910 5911 5911 5913 5915 5919 5920 5924 5925 5924 5920 5918 5917 5915
5855 5856 5857 5858 5859 5861 5862 5864 5865 5867 5868 5870 5871 5873 5874 5876 5878 5881 5882 5884 5887 5889 5890 5892 5894 5897 5899 5902 5904 5905 5907 5909 5909 5910 5911 5913 5919 5919 5919 5921 5922 5921 5918 5915 5913
5851 5851 5852 5853 5854 5856 5857 5859 5861 5863 5864 5866 5868 5870 5871 5873 5875 5877 5879 5882 5884 5886 5888 5890 5892 5894 5897 5900 5902 5904 5908 5909 5914 5908 5911 5911 5916 5924 5919 5920 5919 5920 5919 5914 5910
5846 5847 5848 5848 5850 5851 5852 5854 5856 5858 5860 5862 5864 5867 5869 5870 5872 5874 5876 5879 5881 5883 5885 5887 5889 5892 5895 5897 5902 5907 5906 5912 5913 5908 5908 5909 5913 5920 5916 5916 5914 5916 5918 5915 5909
5840 5841 5843 5844 5845 5846 5848 5849 5852 5854 5856 5858 5860 5862 5865 5867 5869 5871 5873 5875 5877 5879 5882 5883 5885 5888 5892 5894 5898 5898 5906 5908 5910 5908 5906 5910 5912 5913 5915 5910 5912 5915 5914 5913 5908
5833 5835 5837 5839 5840 5841 5842 5844 5845 5848 5850 5852 5854 5857 5861 5863 5865 5867 5870 5872 5874 5876 5877 5880 5882 5885 5887 5888 5892 5895 5897 5901 5907 5905 5900 5904 5906 5908 5909 5906 5907 5910 5912 5907 5900
5825 5827 5829 5832 5834 5836 5837 5838 5839 5841 5844 5846 5849 5852 5856 5859 5861 5864 5866 5868 5870 5872 5874 5876 5879 5878 5881 5885 5888 5891 5893 5895 5900 5901 5896 5899 5902 5902 5899 5900 5900 5899 5899 5900 5900
5816 5818 5821 5824 5828 5829 5831 5832 5834 5836 5837 5841 5842 5846 5849 5853 5855 5859 5861 5864 5866 5869 5871 5872 5874 5876 5878 5881 5884 5887 5889 5891 5892 5895 5898 5897 5899 5901 5895 5892 5891 5890 5891 5892 5892
5807 5809 5812 5814 5818 5822 5825 5826 5828 5831 5832 5829 5836 5841 5843 5848 5851 5854 5856 5858 5861 5864 5867 5870 5870 5871 5873 5878 5879 5883 5883 5885 5888 5889 5892 5895 5896 5901 5890 5888 5882 5885 5885 5885 5884
5797 5800 5802 5805 5808 5813 5815 5818 5822 5825 5823 5824 5831 5833 5837 5841 5844 5846 5850 5852 5856 5858 5860 5863 5864 5867 5870 5872 5874 5877 5879 5882 5883 5884 5885 5889 5895 5899 5889 5887 5875 5880 5880 5879 5878
5789 5791 5793 5794 5799 5802 5805 5809 5814 5814 5817 5820 5824 5828 5830 5834 5837 5839 5844 5846 5849 5852 5855 5858 5860 5863 5865 5867 5869 5872 5875 5878 5879 5881 5882 5887 5888 5893 5883 5881 5876 5873 5875 5873 5872
5781 5783 5784 5785 5788 5791 5795 5799 5802 5807 5811 5813 5820 5822 5824 5827 5829 5833 5835 5838 5843 5847 5850 5850 5853 5857 5861 5863 5864 5867 5870 5875 5879 5882 5883 5877 5880 5883 5873 5874 5874 5871 5870 5869 5867
5770 5772 5775 5776 5777 5780 5784 5787 5794 5799 5801 5804 5811 5814 5817 5819 5823 5825 5828 5833 5837 5841 5845 5846 5848 5851 5852 5857 5859 5862 5863 5870 5871 5873 5876 5875 5871 5871 5869 5867 5867 5866 5865 5864 5862
5758 5760 5762 5766 5767 5769 5772 5778 5782 5785 5789 5797 5802 5806 5810 5812 5815 5817 5821 5827 5830 5833 5838 5840 5842 5844 5847 5850 5852 5855 5860 5861 5862 5866 5869 5873 5873 5867 5860 5862 5861 5860 5859 5857 5856
5743 5745 5748 5751 5753 5756 5762 5767 5772 5776 5777 5786 5791 5795 5799 5804 5806 5811 5815 5819 5822 5826 5830 5833 5836 5841 5840 5843 5847 5849 5852 5854 5858 5863 5863 5866 5869 5857 5853 5854 5856 5855 5853 5851 5849
5727 5728 5733 5735 5739 5744 5749 5754 5759 5763 5764 5774 5777 5783 5787 5794 5797 5801 5806 5811 5815 5819 5821 5826 5828 5832 5833 5838 5841 5842 5844 5848 5849 5853 5854 5856 5858 5853 5853 5849 5849 5849 5846 5845 5843
5711 5711 5715 5716 5722 5727 5733 5738 5744 5749 5754 5761 5764 5770 5776 5783 5786 5792 5797 5802 5804 5809 5813 5818 5819 5825 5829 5830 5832 5836 5840 5842 5843 5845 5847 5851 5849 5846 5845 5844 5844 5842 5838 5839 5836
5692 5693 5693 5697 5703 5707 5714 5721 5728 5734 5742 5746 5753 5757 5763 5769 5775 5782 5789 5791 5794 5802 5806 5810 5812 5818 5822 5828 5829 5828 5831 5834 5836 5837 5840 5843 5846 5838 5838 5836 5836 5837 5831 5831 5829
5673 5672 5671 5676 5681 5688 5694 5703 5712 5719 5729 5733 5739 5746 5752 5757 5765 5772 5779 5783 5785 5792 5796 5802 5805 5810 5815 5819 5825 5826 5823 5826 5828 5831 5834 5841 5835 5831 5826 5827 5829 5827 5826 5824 5822
5653 5655 5655 5658 5660 5668 5674 5683 5693 5704 5713 5721 5726 5735 5740 5747 5756 5762 5768 5776 5775 5783 5788 5792 5797 5802 5806 5810 5814 5818 5820 5821 5823 5826 5828 5830 5831 5831 5820 5823 5823 5821 5815 5817 5815
5639 5639 5637 5642 5645 5651 5660 5670 5677 5688 5699 5708 5714 5722 5729 5735 5743 5752 5759 5763 5769 5772 5779 5784 5789 5794 5798 5805 5808 5807 5812 5815 5817 5819 5823 5822 5822 5816 5816 5816 5815 5815 5811 5809 5808
Wind_Speed
16 16 15 14 13 12 11 11 11 10 8 8 10 12 13 14 16 14 12 10 9 8 7 8 14 22 23 18 16 16 13 6 10 13 18 13 7 10 11 16 16 17 19 19 14
18 17 16 16 15 15 14 15 15 14 11 9 9 11 13 13 14 14 12 11 10 10 9 9 9 14 23 22 19 16 12 5 17 16 10 17 9 13 14 13 9 14 15 16 16
20 20 19 18 16 16 16 17 19 17 15 13 12 11 12 13 14 13 12 12 11 10 11 11 11 9 11 24 26 20 18 10 22 35 18 13 12 18 12 10 11 14 16 19 19
22 22 21 20 19 17 17 17 18 19 19 17 16 15 13 14 16 13 13 13 13 12 10 11 12 11 10 11 21 28 24 18 13 23 19 15 14 17 15 15 3 10 19 20 20
24 23 23 22 21 19 19 18 17 18 19 19 19 18 17 16 15 14 14 14 13 14 13 11 10 13 12 11 12 13 24 29 29 32 25 22 18 15 13 11 9 11 22 20 20
20 24 25 24 23 21 20 19 18 17 17 17 20 21 20 20 16 17 15 14 13 12 16 15 14 13 14 14 13 13 14 15 19 24 24 22 17 15 11 12 14 14 18 19 21
20 20 21 25 25 23 21 21 20 19 18 17 18 19 21 21 21 19 17 16 15 12 13 16 15 15 14 15 16 13 13 12 11 17 22 25 18 16 11 14 11 15 17 20 23
20 21 21 21 23 25 25 21 22 21 20 19 18 18 18 19 22 21 19 17 16 14 13 15 16 18 18 19 15 15 14 11 12 10 14 14 14 15 14 17 13 14 14 22 26
19 20 21 22 21 23 26 26 23 24 23 21 20 18 18 17 18 20 21 19 16 16 15 16 17 18 18 17 17 16 12 9 17 18 12 8 8 14 18 14 16 15 15 20 21
22 19 19 22 23 22 24 27 27 26 26 25 23 21 18 17 17 19 19 17 17 17 17 18 19 19 18 16 12 11 12 13 15 15 15 11 16 12 20 23 20 14 14 19 25
27 24 20 20 22 25 24 25 28 30 28 29 27 26 21 19 19 17 17 19 21 20 18 20 21 19 17 18 18 24 17 16 19 17 12 13 15 16 17 18 13 14 14 19 26
32 30 27 24 22 23 26 26 28 30 31 31 30 28 24 23 21 18 18 16 17 19 23 23 21 21 23 26 22 20 22 18 17 19 21 14 16 18 16 25 16 17 19 27 24
35 35 33 30 28 25 25 27 29 30 31 34 32 31 28 27 24 22 20 20 19 20 21 23 20 28 27 23 22 22 22 21 19 20 25 17 17 18 27 23 22 23 22 23 25
34 35 36 35 34 31 27 27 28 30 32 33 35 34 32 29 29 26 24 24 23 21 21 23 26 26 27 25 24 23 22 23 23 22 18 21 14 20 27 32 30 23 22 22 24
36 35 36 36 36 36 34 31 29 29 31 39 35 33 35 33 31 29 28 28 26 25 25 21 25 25 25 23 24 22 26 22 23 22 20 18 16 9 28 32 40 27 27 27 28
31 32 37 36 38 37 37 37 33 32 36 36 32 33 34 34 34 33 32 32 30 31 30 27 29 27 24 24 26 26 22 20 20 20 22 19 20 9 21 15 36 21 27 29 30
27 31 33 35 38 38 39 39 40 40 37 37 32 30 33 33 34 35 31 34 33 32 31 30 31 27 27 25 25 23 21 17 16 18 19 16 17 20 29 32 38 37 31 27 26
29 28 30 35 36 38 40 42 43 44 41 39 31 32 30 30 34 33 34 34 32 30 31 32 33 31 27 26 26 22 20 15 15 10 11 26 23 22 36 33 33 30 26 24 24
34 34 32 32 37 39 40 46 45 43 46 45 38 37 33 35 31 32 33 32 31 30 29 26 29 24 31 26 27 22 24 18 22 23 18 12 17 22 29 27 24 22 22 22 25
41 41 40 37 39 40 42 42 46 46 48 45 43 41 38 37 36 37 34 31 31 31 29 29 28 28 29 27 28 29 21 24 26 20 22 20 21 20 29 29 22 20 23 24 26
45 45 46 45 45 45 42 42 44 45 50 45 44 45 44 36 41 37 35 35 33 31 30 32 32 23 32 30 28 30 29 27 21 18 18 19 19 26 25 25 27 26 26 26 27
51 52 51 50 52 49 47 46 46 48 52 45 48 48 50 45 44 42 40 35 36 32 34 31 33 30 31 26 26 26 26 28 28 26 25 25 25 27 27 35 34 30 29 29 31
53 56 55 56 54 56 54 52 50 52 50 49 50 50 49 46 48 47 41 36 41 36 38 33 37 32 23 26 27 27 25 23 23 25 24 23 21 30 30 33 30 28 32 28 30
56 57 58 57 56 61 61 58 54 54 51 51 50 51 51 51 50 47 42 39 44 37 36 35 36 32 29 22 20 26 28 28 29 30 23 21 20 33 34 33 30 24 32 28 30
52 51 56 59 54 62 64 61 57 58 52 51 52 52 52 52 48 47 43 36 44 40 40 38 38 35 31 27 21 22 28 27 28 28 22 17 28 27 20 23 27 33 30 30 30
44 45 48 47 50 57 66 65 61 58 54 53 51 50 50 51 48 48 42 34 43 41 40 40 39 35 34 31 26 27 28 24 25 22 21 26 26 23 41 34 38 33 39 31 34
38 40 43 41 46 50 54 57 59 56 55 53 50 46 47 49 47 45 34 41 36 40 39 40 38 35 32 27 31 31 29 28 28 27 23 24 26 35 37 36 33 31 36 36 38
Wind_Direction
236 237 237 239 242 242 242 241 238 239 236 232 230 226 222 219 223 229 233 228 226 220 199 192 198 206 212 212 208 205 197 209 240 237 290 284 271 242 281 303 322 322 308 311 321
241 242 241 244 247 248 245 242 241 239 235 231 234 231 223 220 221 223 227 230 231 226 203 196 198 203 207 215 216 203 187 214 222 216 228 264 244 269 295 306 298 327 317 307 326
246 245 245 245 249 250 247 243 241 237 234 231 232 234 231 227 226 221 223 221 217 217 206 202 203 200 205 213 216 211 193 242 240 235 227 240 249 266 292 280 251 310 341 332 317
249 249 248 248 250 253 249 242 240 239 236 232 231 231 232 230 230 225 223 222 220 219 207 204 207 207 204 211 219 221 201 226 232 236 233 235 242 253 269 263 21 292 332 339 331
250 250 250 250 252 253 249 241 238 238 236 235 233 232 232 233 228 227 223 224 226 222 216 212 207 211 210 209 219 221 213 233 235 255 244 240 247 242 260 263 282 278 312 326 333
254 251 250 250 250 251 250 240 237 235 236 234 236 235 234 235 233 230 228 226 227 226 219 217 214 213 214 215 217 224 226 245 242 251 252 251 249 249 233 267 288 302 313 317 336
256 254 250 248 247 246 246 240 235 234 235 234 237 237 236 236 235 231 230 229 229 228 220 217 218 218 215 217 220 231 238 253 258 248 245 246 251 252 262 254 254 304 313 320 327
261 255 254 251 246 244 242 239 235 233 232 233 234 237 236 234 233 232 231 229 227 225 221 212 214 219 219 224 225 228 235 244 262 238 244 250 240 270 258 244 261 273 288 315 321
265 262 255 253 250 244 241 240 236 233 232 232 234 233 235 233 230 231 231 228 227 225 223 221 218 218 221 225 231 236 233 222 227 257 233 234 199 238 253 242 262 263 278 287 298
263 262 261 255 251 247 243 239 237 235 232 233 233 233 229 231 229 229 229 227 226 223 221 223 226 226 224 220 218 242 237 226 224 254 222 249 180 230 250 247 262 258 269 273 285
256 258 259 260 256 249 245 242 238 234 233 231 232 235 227 227 228 227 224 225 223 221 223 223 226 228 232 229 205 219 210 210 227 243 233 224 247 231 249 266 248 264 279 281 279
255 256 255 258 258 256 249 243 242 237 234 231 231 233 230 229 230 228 229 228 228 223 223 224 227 233 228 230 230 234 232 221 222 233 259 254 248 243 237 245 257 246 237 240 253
256 255 254 253 253 255 254 249 244 241 236 236 232 232 231 231 231 230 228 229 229 226 227 228 229 229 236 238 238 238 237 236 229 243 271 262 255 256 253 272 272 268 259 248 251
257 255 255 252 252 251 251 252 248 245 241 238 236 232 233 233 232 233 232 231 231 231 231 231 231 238 239 238 241 242 244 240 241 237 251 292 258 282 252 287 288 285 275 263 256
260 257 253 254 251 249 248 248 247 246 245 240 234 235 237 235 236 235 234 235 235 237 235 238 236 245 243 244 245 240 240 245 246 247 243 244 256 256 248 278 284 281 278 273 268
264 263 258 254 250 249 248 246 244 243 244 243 238 237 238 237 238 236 236 236 235 236 236 234 239 241 241 242 244 241 249 250 248 247 245 236 235 247 263 244 266 283 284 277 276
273 266 262 260 253 249 247 245 243 241 244 247 240 237 238 237 238 239 236 238 241 242 244 241 244 241 244 245 248 247 247 250 245 236 245 250 236 219 242 246 261 284 287 284 283
277 274 270 263 259 252 246 244 243 242 240 244 241 238 238 237 238 237 237 236 235 236 239 242 241 247 245 247 255 246 241 214 238 251 260 236 246 251 257 256 259 271 280 283 284
273 274 271 267 265 256 250 243 243 243 241 240 238 237 237 237 235 237 236 237 236 236 238 241 241 247 241 236 238 243 238 223 232 216 223 258 231 257 276 268 264 272 281 285 290
272 272 269 267 262 261 256 251 243 244 242 240 236 237 236 237 236 238 236 238 236 235 233 231 235 237 246 238 236 232 239 233 233 227 233 243 253 271 273 278 270 282 286 290 294
272 269 269 259 259 259 263 257 248 243 242 237 234 234 233 228 237 234 236 235 233 237 233 233 237 236 244 247 248 242 239 241 231 233 253 241 244 239 266 271 276 288 287 289 291
269 270 265 260 253 257 259 257 248 242 242 234 233 233 232 229 233 235 234 234 233 228 233 233 237 225 247 248 240 249 247 239 241 234 232 229 226 253 258 267 278 285 283 288 292
268 267 263 261 255 249 250 249 246 243 239 235 233 231 230 231 233 233 227 230 233 226 228 226 232 230 226 230 237 240 239 234 245 247 233 243 265 264 263 264 274 280 285 289 287
271 268 267 261 253 240 241 241 240 240 237 232 232 229 228 229 230 229 227 228 235 225 226 223 231 231 236 242 258 250 240 244 248 249 257 257 252 272 267 272 279 277 282 285 286
272 271 268 266 251 235 231 232 233 234 232 230 229 230 228 229 228 228 226 229 232 227 226 227 233 235 231 221 226 240 260 239 239 250 238 237 249 241 249 261 269 281 281 285 284
277 273 270 261 252 238 225 224 223 224 226 227 227 228 228 228 226 227 225 219 235 229 227 229 233 233 234 230 229 229 237 252 244 235 246 243 245 243 254 260 274 287 288 286 290
275 272 263 248 239 232 224 225 220 217 221 223 224 225 225 226 222 219 213 214 231 225 225 230 231 231 232 225 237 233 228 235 242 242 240 245 242 248 262 270 280 282 278 283 293